User: anonymous   Login
Location: Melbourne
(37.8170°S, 144.9670°E)
Time: 17:16:37
(UTC+11:00)
Language:

CZ-3 R/B - Orbit

View from above orbital plane
View from above orbital plane
View from above satellite
View from above satellite

Ground track
Ground track

The orbit data is extracted from the following two-line orbital elements,

1 29517U 06048B   14302.74596089  .00097648  00000-0  22549-2 0  5129
2 29517 028.5134 085.6407 5243401 181.4851 348.8528 05.33402838106872
Epoch (UTC): 29 October 2014 17:54:11
Eccentricity: 0.5243401
inclination: 28.5134°
perigee height: 203 km
apogee height: 14713 km
right ascension of ascending node: 85.6407°
argument of perigee: 181.4851°
revolutions per day: 5.33402838
mean anomaly at epoch: 348.8528°
orbit number at epoch: 10687

The dashed part of the orbit path shows where the satellite is in the earth's shadow,  

DLR